Location: *
(37.9500°N, 27.3666°E)
Time: 05:32:39
(UTC+00:00)

Cosmos 614 Rocket - Pass Details

Date: 05 June 2022
Orbit: 732 x 764 km, 74.1° (Epoch: 03 July)

Event Time Altitude Azimuth Distance (km) Brightness Sun altitude
Rises 23:09:48 0° 334° (NNW) 3,227 7.9 -27.8°
Reaches altitude 10° 23:12:15 10° 329° (NNW) 2,300 7.0 -27.6°
Enters shadow 23:16:00 38° 293° (WNW) 1,152 4.9 -27.4°
